Time,TemperatureF,DewpointF,PressureIn,WindDirection,WindDirectionDegrees,WindSpeedMPH,WindSpeedGustMPH,Humidity,HourlyPrecipIn,Conditions,Clouds,dailyrainin,SoftwareType,DateUTC
2013-03-19 00:00:00,30.0,19.8,30.09,East,85,6.0,21.0,65,0.00,,,0.00,Weather View 32 v70,2013-03-19 04:00:00,
2013-03-19 00:05:00,29.8,19.5,30.06,ESE,103,9.0,21.0,65,0.00,,,0.00,Weather View 32 v70,2013-03-19 04:05:00,
2013-03-19 00:10:00,29.6,19.3,30.03,East,96,11.0,21.0,65,0.00,,,0.00,Weather View 32 v70,2013-03-19 04:10:00,
2013-03-19 00:15:00,30.2,20.0,30.03,East,81,6.0,21.0,66,0.00,,,0.00,Weather View 32 v70,2013-03-19 04:15:00,
2013-03-19 00:20:00,29.8,19.6,30.03,East,93,10.0,21.0,65,0.00,,,0.00,Weather View 32 v70,2013-03-19 04:20:00,
2013-03-19 00:25:00,30.0,19.9,30.06,East,84,5.0,21.0,66,0.00,,,0.00,Weather View 32 v70,2013-03-19 04:25:00,
2013-03-19 00:30:00,29.8,19.7,30.03,ESE,107,12.0,21.0,66,0.00,,,0.00,Weather View 32 v70,2013-03-19 04:30:00,
2013-03-19 00:36:00,29.8,19.9,30.06,ESE,108,11.0,21.0,66,0.00,,,0.00,Weather View 32 v70,2013-03-19 04:36:00,
2013-03-19 00:41:00,30.0,19.5,30.06,East,99,8.0,21.0,65,0.00,,,0.00,Weather View 32 v70,2013-03-19 04:41:00,
2013-03-19 00:48:00,29.8,19.5,30.00,ESE,113,17.0,23.0,65,0.00,,,0.00,Weather View 32 v70,2013-03-19 04:48:00,
2013-03-19 00:53:00,29.8,19.4,30.00,SE,128,17.0,23.0,65,0.00,,,0.00,Weather View 32 v70,2013-03-19 04:53:00,
2013-03-19 00:58:00,30.2,19.8,30.03,East,86,7.0,23.0,65,0.00,,,0.00,Weather View 32 v70,2013-03-19 04:58:00,
2013-03-19 01:03:00,30.2,19.3,30.00,ESE,104,13.0,27.0,64,0.00,,,0.00,Weather View 32 v70,2013-03-19 05:03:00,
2013-03-19 01:08:00,30.2,19.2,29.97,ESE,111,11.0,27.0,63,0.00,,,0.00,Weather View 32 v70,2013-03-19 05:08:00,
2013-03-19 01:13:00,30.4,19.2,30.00,ESE,104,10.0,27.0,63,0.00,,,0.00,Weather View 32 v70,2013-03-19 05:13:00,
2013-03-19 01:18:00,30.2,18.8,29.97,ESE,117,11.0,27.0,62,0.00,,,0.00,Weather View 32 v70,2013-03-19 05:18:00,
2013-03-19 01:23:00,30.4,18.7,30.00,East,91,10.0,27.0,62,0.00,,,0.00,Weather View 32 v70,2013-03-19 05:23:00,
2013-03-19 01:28:00,30.4,18.8,29.97,SE,124,14.0,27.0,62,0.00,,,0.00,Weather View 32 v70,2013-03-19 05:28:00,
2013-03-19 01:33:00,30.4,18.7,29.97,SE,124,22.0,27.0,62,0.00,,,0.00,Weather View 32 v70,2013-03-19 05:33:00,
2013-03-19 01:38:00,30.5,18.8,29.97,ESE,120,13.0,28.0,61,0.00,,,0.00,Weather View 32 v70,2013-03-19 05:38:00,
2013-03-19 01:43:00,30.4,18.9,29.97,East,94,14.0,28.0,62,0.00,,,0.00,Weather View 32 v70,2013-03-19 05:43:00,
2013-03-19 01:48:00,30.7,18.9,29.97,East,81,7.0,28.0,61,0.00,,,0.00,Weather View 32 v70,2013-03-19 05:48:00,
2013-03-19 01:53:00,30.5,19.1,29.97,East,100,8.0,28.0,62,0.00,,,0.00,Weather View 32 v70,2013-03-19 05:53:00,
2013-03-19 01:58:00,30.2,19.0,29.97,East,94,13.0,28.0,63,0.00,,,0.00,Weather View 32 v70,2013-03-19 05:58:00,
2013-03-19 02:03:00,30.5,19.7,29.97,ESE,102,6.0,28.0,64,0.00,,,0.00,Weather View 32 v70,2013-03-19 06:03:00,
2013-03-19 02:08:00,30.5,19.3,29.97,East,93,8.0,28.0,63,0.00,,,0.00,Weather View 32 v70,2013-03-19 06:08:00,
2013-03-19 02:13:00,30.4,19.2,29.94,East,80,11.0,28.0,63,0.00,,,0.00,Weather View 32 v70,2013-03-19 06:13:00,
2013-03-19 02:18:00,29.8,19.1,29.94,East,95,14.0,28.0,64,0.00,,,0.00,Weather View 32 v70,2013-03-19 06:18:00,
2013-03-19 02:23:00,30.5,19.7,29.94,East,93,5.0,28.0,64,0.00,,,0.00,Weather View 32 v70,2013-03-19 06:23:00,
2013-03-19 02:28:00,30.2,19.5,29.94,East,80,9.0,28.0,64,0.00,,,0.00,Weather View 32 v70,2013-03-19 06:28:00,
2013-03-19 02:33:00,30.2,19.1,29.94,East,90,9.0,28.0,63,0.00,,,0.00,Weather View 32 v70,2013-03-19 06:33:00,
2013-03-19 02:38:00,30.0,19.1,29.94,ESE,102,10.0,26.0,63,0.00,,,0.00,Weather View 32 v70,2013-03-19 06:38:00,
2013-03-19 02:43:00,30.2,19.4,29.91,East,82,12.0,26.0,64,0.00,,,0.00,Weather View 32 v70,2013-03-19 06:43:00,
2013-03-19 02:48:00,30.0,19.2,29.94,East,92,9.0,22.0,64,0.00,,,0.00,Weather View 32 v70,2013-03-19 06:48:00,
2013-03-19 02:53:00,30.2,19.3,29.91,ESE,111,9.0,22.0,64,0.00,,,0.00,Weather View 32 v70,2013-03-19 06:53:00,
2013-03-19 02:58:00,30.2,18.9,29.94,East,100,12.0,22.0,63,0.00,,,0.00,Weather View 32 v70,2013-03-19 06:58:00,
2013-03-19 03:03:00,30.2,19.1,29.91,ESE,113,15.0,22.0,63,0.00,,,0.00,Weather View 32 v70,2013-03-19 07:03:00,
2013-03-19 03:08:00,30.2,19.2,29.91,ESE,102,13.0,26.0,63,0.00,,,0.00,Weather View 32 v70,2013-03-19 07:08:00,
2013-03-19 03:13:00,30.0,19.5,29.91,ESE,109,13.0,26.0,65,0.00,,,0.00,Weather View 32 v70,2013-03-19 07:13:00,
2013-03-19 03:18:00,30.2,19.7,29.91,East,101,11.0,26.0,65,0.00,,,0.00,Weather View 32 v70,2013-03-19 07:18:00,
2013-03-19 03:23:00,30.4,19.7,29.88,East,96,10.0,26.0,64,0.00,,,0.00,Weather View 32 v70,2013-03-19 07:23:00,
2013-03-19 03:28:00,30.5,20.0,29.88,ENE,78,11.0,26.0,64,0.00,,,0.00,Weather View 32 v70,2013-03-19 07:28:00,
2013-03-19 03:33:00,30.7,20.3,29.88,East,79,11.0,26.0,65,0.00,,,0.00,Weather View 32 v70,2013-03-19 07:33:00,
2013-03-19 03:38:00,30.4,20.1,29.88,East,98,13.0,26.0,65,0.00,,,0.00,Weather View 32 v70,2013-03-19 07:38:00,
2013-03-19 03:43:00,30.4,20.0,29.88,ESE,117,16.0,26.0,65,0.00,,,0.00,Weather View 32 v70,2013-03-19 07:43:00,
2013-03-19 03:48:00,30.7,20.3,29.88,East,95,12.0,26.0,65,0.00,,,0.00,Weather View 32 v70,2013-03-19 07:48:00,
2013-03-19 03:53:00,31.3,20.7,29.88,East,86,8.0,26.0,65,0.00,,,0.00,Weather View 32 v70,2013-03-19 07:53:00,
2013-03-19 03:58:00,31.1,20.8,29.88,East,98,12.0,26.0,65,0.00,,,0.00,Weather View 32 v70,2013-03-19 07:58:00,
2013-03-19 04:03:00,31.4,20.7,29.88,East,85,12.0,26.0,64,0.00,,,0.00,Weather View 32 v70,2013-03-19 08:03:00,
2013-03-19 04:08:00,31.8,21.0,29.88,East,83,9.0,22.0,64,0.00,,,0.00,Weather View 32 v70,2013-03-19 08:08:00,
2013-03-19 04:13:00,31.3,20.4,29.88,SE,133,15.0,22.0,64,0.00,,,0.00,Weather View 32 v70,2013-03-19 08:13:00,
2013-03-19 04:18:00,32.2,21.2,29.88,East,92,5.0,20.0,64,0.00,,,0.00,Weather View 32 v70,2013-03-19 08:18:00,
2013-03-19 04:23:00,32.0,20.2,29.88,ESE,119,13.0,20.0,62,0.00,,,0.00,Weather View 32 v70,2013-03-19 08:23:00,
2013-03-19 04:28:00,31.6,20.7,29.88,ESE,107,14.0,23.0,64,0.00,,,0.00,Weather View 32 v70,2013-03-19 08:28:00,
2013-03-19 04:33:00,31.4,21.0,29.88,ESE,102,19.0,23.0,65,0.00,,,0.00,Weather View 32 v70,2013-03-19 08:33:00,
2013-03-19 04:39:00,31.8,21.4,29.88,East,94,9.0,23.0,65,0.00,,,0.00,Weather View 32 v70,2013-03-19 08:39:00,
2013-03-19 04:44:00,31.8,21.2,29.88,East,79,10.0,23.0,65,0.00,,,0.00,Weather View 32 v70,2013-03-19 08:44:00,
2013-03-19 04:49:00,31.6,21.1,29.88,East,96,11.0,23.0,65,0.00,,,0.00,Weather View 32 v70,2013-03-19 08:49:00,
2013-03-19 04:54:00,32.0,21.5,29.88,East,95,9.0,23.0,65,0.00,,,0.00,Weather View 32 v70,2013-03-19 08:54:00,
2013-03-19 04:59:00,32.2,21.4,29.80,East,91,7.0,23.0,64,0.00,,,0.00,Weather View 32 v70,2013-03-19 08:59:00,
2013-03-19 05:04:00,31.8,21.4,29.83,East,92,7.0,23.0,65,0.00,,,0.00,Weather View 32 v70,2013-03-19 09:04:00,
2013-03-19 05:09:00,31.6,21.4,29.83,ESE,120,16.0,23.0,66,0.00,,,0.00,Weather View 32 v70,2013-03-19 09:09:00,
2013-03-19 05:14:00,31.8,21.7,29.80,ESE,109,8.0,23.0,66,0.00,,,0.00,Weather View 32 v70,2013-03-19 09:14:00,
2013-03-19 05:20:00,31.8,21.5,29.83,East,101,12.0,23.0,65,0.00,,,0.00,Weather View 32 v70,2013-03-19 09:20:00,
2013-03-19 05:25:00,31.8,21.8,29.83,East,100,10.0,23.0,66,0.00,,,0.00,Weather View 32 v70,2013-03-19 09:25:00,
2013-03-19 05:30:00,31.8,21.9,29.83,East,91,6.0,23.0,67,0.00,,,0.00,Weather View 32 v70,2013-03-19 09:30:00,
2013-03-19 05:35:00,31.6,21.8,29.83,East,99,12.0,23.0,67,0.00,,,0.00,Weather View 32 v70,2013-03-19 09:35:00,
2013-03-19 05:40:00,31.6,22.0,29.83,East,99,13.0,23.0,67,0.00,,,0.00,Weather View 32 v70,2013-03-19 09:40:00,
2013-03-19 05:45:00,31.8,22.1,29.83,East,100,10.0,23.0,67,0.00,,,0.00,Weather View 32 v70,2013-03-19 09:45:00,
2013-03-19 05:50:00,31.6,21.9,29.83,East,99,11.0,23.0,67,0.00,,,0.00,Weather View 32 v70,2013-03-19 09:50:00,
2013-03-19 05:55:00,31.8,22.2,29.80,ESE,102,8.0,23.0,67,0.00,,,0.00,Weather View 32 v70,2013-03-19 09:55:00,
2013-03-19 06:00:00,31.8,22.1,29.86,ESE,106,11.0,23.0,67,0.00,,,0.00,Weather View 32 v70,2013-03-19 10:00:00,
2013-03-19 06:05:00,31.8,22.2,29.83,East,96,10.0,23.0,67,0.00,,,0.00,Weather View 32 v70,2013-03-19 10:05:00,
2013-03-19 06:10:00,32.0,21.9,29.80,ESE,122,9.0,23.0,66,0.00,,,0.00,Weather View 32 v70,2013-03-19 10:10:00,
2013-03-19 06:15:00,31.8,21.9,29.80,East,99,13.0,23.0,67,0.00,,,0.00,Weather View 32 v70,2013-03-19 10:15:00,
2013-03-19 06:20:00,32.2,22.3,29.80,East,86,5.0,23.0,67,0.00,,,0.00,Weather View 32 v70,2013-03-19 10:20:00,
2013-03-19 06:25:00,32.2,21.9,29.80,East,81,5.0,22.0,66,0.00,,,0.00,Weather View 32 v70,2013-03-19 10:25:00,
2013-03-19 06:30:00,32.5,22.1,29.80,East,88,3.0,22.0,65,0.00,,,0.00,Weather View 32 v70,2013-03-19 10:30:00,
2013-03-19 06:35:00,32.3,21.2,29.77,East,91,6.0,18.0,63,0.00,,,0.00,Weather View 32 v70,2013-03-19 10:35:00,
2013-03-19 06:40:00,32.5,21.3,29.83,East,87,7.0,18.0,63,0.00,,,0.00,Weather View 32 v70,2013-03-19 10:40:00,
2013-03-19 06:45:00,32.7,21.7,29.80,ENE,76,4.0,18.0,64,0.00,,,0.00,Weather View 32 v70,2013-03-19 10:45:00,
2013-03-19 06:50:00,32.5,21.4,29.80,ENE,64,3.0,18.0,63,0.00,,,0.00,Weather View 32 v70,2013-03-19 10:50:00,
2013-03-19 06:55:00,32.3,21.5,29.80,East,85,6.0,18.0,64,0.00,,,0.00,Weather View 32 v70,2013-03-19 10:55:00,
2013-03-19 07:00:00,31.8,20.8,29.83,East,96,11.0,18.0,63,0.00,,,0.00,Weather View 32 v70,2013-03-19 11:00:00,
2013-03-19 07:05:00,31.8,21.0,29.80,ESE,104,13.0,18.0,64,0.00,,,0.00,Weather View 32 v70,2013-03-19 11:05:00,
2013-03-19 07:10:00,31.8,21.4,29.80,ESE,103,8.0,17.0,65,0.00,,,0.00,Weather View 32 v70,2013-03-19 11:10:00,
2013-03-19 07:15:00,32.0,21.4,29.77,East,92,8.0,17.0,65,0.00,,,0.00,Weather View 32 v70,2013-03-19 11:15:00,
2013-03-19 07:20:00,32.3,21.6,29.77,East,80,9.0,17.0,64,0.00,,,0.00,Weather View 32 v70,2013-03-19 11:20:00,
2013-03-19 07:25:00,32.3,21.7,29.80,ENE,59,7.0,17.0,64,0.00,,,0.00,Weather View 32 v70,2013-03-19 11:25:00,
2013-03-19 07:30:00,32.0,21.4,29.77,East,94,6.0,17.0,65,0.00,,,0.00,Weather View 32 v70,2013-03-19 11:30:00,
2013-03-19 07:35:00,32.2,22.1,29.77,ENE,73,8.0,17.0,66,0.00,,,0.00,Weather View 32 v70,2013-03-19 11:35:00,
2013-03-19 07:40:00,32.0,21.8,29.77,East,82,11.0,18.0,66,0.00,,,0.00,Weather View 32 v70,2013-03-19 11:40:00,
2013-03-19 07:45:00,32.0,21.7,29.77,East,95,10.0,18.0,65,0.00,,,0.00,Weather View 32 v70,2013-03-19 11:45:00,
2013-03-19 07:50:00,32.3,22.2,29.74,ENE,71,9.0,18.0,66,0.00,,,0.00,Weather View 32 v70,2013-03-19 11:50:00,
2013-03-19 07:55:00,32.0,22.0,29.77,East,79,10.0,18.0,66,0.00,,,0.00,Weather View 32 v70,2013-03-19 11:55:00,
2013-03-19 08:00:00,31.8,22.0,29.74,East,88,12.0,18.0,67,0.00,,,0.00,Weather View 32 v70,2013-03-19 12:00:00,
2013-03-19 08:05:00,32.2,22.0,29.74,ENE,78,14.0,23.0,66,0.00,,,0.00,Weather View 32 v70,2013-03-19 12:05:00,
2013-03-19 08:10:00,32.2,21.9,29.74,ESE,103,11.0,23.0,66,0.00,,,0.00,Weather View 32 v70,2013-03-19 12:10:00,
2013-03-19 08:15:00,32.2,22.0,29.74,ESE,103,16.0,23.0,66,0.00,,,0.00,Weather View 32 v70,2013-03-19 12:15:00,
2013-03-19 08:20:00,32.3,22.2,29.74,East,101,10.0,23.0,66,0.00,,,0.00,Weather View 32 v70,2013-03-19 12:20:00,
2013-03-19 08:25:00,32.5,22.1,29.74,ESE,114,12.0,23.0,65,0.00,,,0.00,Weather View 32 v70,2013-03-19 12:25:00,
2013-03-19 08:30:00,32.5,22.1,29.74,East,93,11.0,23.0,65,0.00,,,0.00,Weather View 32 v70,2013-03-19 12:30:00,
2013-03-19 08:35:00,32.5,22.2,29.74,East,96,12.0,23.0,66,0.00,,,0.00,Weather View 32 v70,2013-03-19 12:35:00,
2013-03-19 08:40:00,32.7,22.4,29.74,NE,47,4.0,23.0,66,0.00,,,0.00,Weather View 32 v70,2013-03-19 12:40:00,
2013-03-19 08:45:00,32.7,22.2,29.77,East,81,10.0,23.0,65,0.00,,,0.00,Weather View 32 v70,2013-03-19 12:45:00,
2013-03-19 08:50:00,32.9,22.5,29.74,East,87,9.0,23.0,65,0.00,,,0.00,Weather View 32 v70,2013-03-19 12:50:00,
2013-03-19 08:55:00,32.9,22.5,29.71,ENE,78,8.0,23.0,65,0.00,,,0.00,Weather View 32 v70,2013-03-19 12:55:00,
2013-03-19 09:00:00,32.7,22.6,29.74,ENE,77,14.0,27.0,66,0.00,,,0.00,Weather View 32 v70,2013-03-19 13:00:00,
2013-03-19 09:05:00,32.7,22.7,29.71,East,80,12.0,27.0,66,0.00,,,0.00,Weather View 32 v70,2013-03-19 13:05:00,
2013-03-19 09:10:00,32.7,22.8,29.71,East,85,12.0,28.0,67,0.00,,,0.00,Weather View 32 v70,2013-03-19 13:10:00,
2013-03-19 09:15:00,33.1,22.9,29.68,ENE,75,15.0,28.0,66,0.00,,,0.00,Weather View 32 v70,2013-03-19 13:15:00,
2013-03-19 09:20:00,33.4,23.0,29.71,East,81,11.0,28.0,65,0.00,,,0.00,Weather View 32 v70,2013-03-19 13:20:00,
2013-03-19 09:25:00,33.6,22.9,29.71,ENE,67,11.0,28.0,65,0.00,,,0.00,Weather View 32 v70,2013-03-19 13:25:00,
2013-03-19 09:30:00,33.6,22.6,29.68,ENE,76,15.0,28.0,64,0.00,,,0.00,Weather View 32 v70,2013-03-19 13:30:00,
2013-03-19 09:35:00,33.6,22.6,29.71,ENE,72,7.0,28.0,64,0.00,,,0.00,Weather View 32 v70,2013-03-19 13:35:00,
2013-03-19 09:40:00,33.8,22.7,29.68,East,87,9.0,28.0,64,0.00,,,0.00,Weather View 32 v70,2013-03-19 13:40:00,
2013-03-19 09:45:00,34.1,22.9,29.68,ESE,111,12.0,28.0,63,0.00,,,0.00,Weather View 32 v70,2013-03-19 13:45:00,
2013-03-19 09:50:00,34.3,22.8,29.68,East,80,6.0,28.0,62,0.00,,,0.00,Weather View 32 v70,2013-03-19 13:50:00,
2013-03-19 09:55:00,34.7,23.2,29.71,ENE,65,5.0,28.0,63,0.00,,,0.00,Weather View 32 v70,2013-03-19 13:55:00,
2013-03-19 10:00:00,34.1,22.2,29.68,North,5,2.0,28.0,61,0.00,,,0.00,Weather View 32 v70,2013-03-19 14:00:00,
2013-03-19 10:05:00,34.5,22.2,29.71,ENE,78,5.0,28.0,60,0.00,,,0.00,Weather View 32 v70,2013-03-19 14:05:00,
2013-03-19 10:10:00,34.9,22.9,29.68,ENE,58,5.0,21.0,61,0.00,,,0.00,Weather View 32 v70,2013-03-19 14:10:00,
2013-03-19 10:15:00,34.5,22.9,29.68,ENE,75,6.0,19.0,62,0.00,,,0.00,Weather View 32 v70,2013-03-19 14:15:00,
2013-03-19 10:20:00,34.9,23.0,29.71,ENE,74,8.0,19.0,62,0.00,,,0.00,Weather View 32 v70,2013-03-19 14:20:00,
2013-03-19 10:25:00,34.9,23.0,29.68,ENE,78,7.0,19.0,62,0.00,,,0.00,Weather View 32 v70,2013-03-19 14:25:00,
2013-03-19 10:30:00,35.4,23.3,29.71,NE,49,6.0,19.0,61,0.00,,,0.00,Weather View 32 v70,2013-03-19 14:30:00,
2013-03-19 10:35:00,35.6,23.3,29.65,ENE,71,3.0,19.0,61,0.00,,,0.00,Weather View 32 v70,2013-03-19 14:35:00,
2013-03-19 10:40:00,35.0,22.5,29.68,ENE,74,7.0,19.0,60,0.00,,,0.00,Weather View 32 v70,2013-03-19 14:40:00,
2013-03-19 10:45:00,35.0,22.8,29.68,ENE,72,4.0,19.0,61,0.00,,,0.00,Weather View 32 v70,2013-03-19 14:45:00,
2013-03-19 10:50:00,35.0,22.3,29.68,East,91,8.0,19.0,59,0.00,,,0.00,Weather View 32 v70,2013-03-19 14:50:00,
2013-03-19 10:55:00,35.4,22.9,29.68,North,359,7.0,19.0,60,0.00,,,0.00,Weather View 32 v70,2013-03-19 14:55:00,
2013-03-19 11:00:00,35.8,23.1,29.65,ENE,58,6.0,19.0,60,0.00,,,0.00,Weather View 32 v70,2013-03-19 15:00:00,
2013-03-19 11:05:00,35.2,22.8,29.65,ENE,68,5.0,19.0,60,0.00,,,0.00,Weather View 32 v70,2013-03-19 15:05:00,
2013-03-19 11:10:00,35.6,23.4,29.65,NE,51,7.0,19.0,61,0.00,,,0.00,Weather View 32 v70,2013-03-19 15:10:00,
2013-03-19 11:15:00,35.4,22.9,29.65,East,83,8.0,16.0,60,0.00,,,0.00,Weather View 32 v70,2013-03-19 15:15:00,
2013-03-19 11:20:00,35.6,23.4,29.65,NNE,18,6.0,17.0,61,0.00,,,0.00,Weather View 32 v70,2013-03-19 15:20:00,
2013-03-19 11:25:00,35.9,23.4,29.65,ENE,61,8.0,17.0,60,0.00,,,0.00,Weather View 32 v70,2013-03-19 15:25:00,
2013-03-19 11:30:00,36.1,24.0,29.65,ENE,65,5.0,17.0,61,0.00,,,0.00,Weather View 32 v70,2013-03-19 15:30:00,
2013-03-19 11:35:00,35.4,22.8,29.62,East,84,11.0,17.0,60,0.00,,,0.00,Weather View 32 v70,2013-03-19 15:35:00,
2013-03-19 11:40:00,35.2,23.1,29.65,ESE,105,17.0,17.0,61,0.00,,,0.00,Weather View 32 v70,2013-03-19 15:40:00,
2013-03-19 11:45:00,36.3,24.6,29.65,ENE,70,8.0,19.0,62,0.00,,,0.00,Weather View 32 v70,2013-03-19 15:45:00,
2013-03-19 11:50:00,36.7,24.6,29.62,ENE,61,5.0,19.0,61,0.00,,,0.00,Weather View 32 v70,2013-03-19 15:50:00,
2013-03-19 11:55:00,37.0,24.9,29.59,NE,48,3.0,19.0,61,0.00,,,0.00,Weather View 32 v70,2013-03-19 15:55:00,
2013-03-19 12:00:00,37.2,24.4,29.62,ENE,58,5.0,19.0,60,0.00,,,0.00,Weather View 32 v70,2013-03-19 16:00:00,
2013-03-19 12:05:00,36.7,24.1,29.62,ENE,75,5.0,19.0,60,0.00,,,0.00,Weather View 32 v70,2013-03-19 16:05:00,
2013-03-19 12:10:00,37.0,24.7,29.62,ENE,72,6.0,19.0,61,0.00,,,0.00,Weather View 32 v70,2013-03-19 16:10:00,
2013-03-19 12:15:00,36.5,24.5,29.62,ENE,65,7.0,19.0,62,0.00,,,0.00,Weather View 32 v70,2013-03-19 16:15:00,
2013-03-19 12:20:00,37.0,25.4,29.59,NNE,26,7.0,19.0,63,0.00,,,0.00,Weather View 32 v70,2013-03-19 16:20:00,
2013-03-19 12:25:00,36.8,25.0,29.59,ENE,74,7.0,19.0,62,0.00,,,0.00,Weather View 32 v70,2013-03-19 16:25:00,
2013-03-19 12:30:00,36.7,25.4,29.59,East,90,3.0,19.0,63,0.00,,,0.00,Weather View 32 v70,2013-03-19 16:30:00,
2013-03-19 12:35:00,37.2,26.0,29.62,ENE,57,7.0,19.0,64,0.00,,,0.00,Weather View 32 v70,2013-03-19 16:35:00,
2013-03-19 12:40:00,36.7,25.2,29.59,East,97,3.0,19.0,63,0.00,,,0.00,Weather View 32 v70,2013-03-19 16:40:00,
2013-03-19 12:45:00,37.4,26.0,29.59,NE,54,2.0,15.0,63,0.00,,,0.00,Weather View 32 v70,2013-03-19 16:45:00,
2013-03-19 12:50:00,37.4,25.8,29.59,ENE,59,5.0,15.0,63,0.00,,,0.00,Weather View 32 v70,2013-03-19 16:50:00,
2013-03-19 12:55:00,37.6,25.8,29.59,NE,42,3.0,15.0,62,0.00,,,0.00,Weather View 32 v70,2013-03-19 16:55:00,
2013-03-19 13:00:00,36.8,25.1,29.59,ENE,68,6.0,15.0,62,0.00,,,0.00,Weather View 32 v70,2013-03-19 17:00:00,
2013-03-19 13:05:00,37.4,25.9,29.59,ENE,59,2.0,15.0,63,0.00,,,0.00,Weather View 32 v70,2013-03-19 17:05:00,
2013-03-19 13:10:00,37.4,25.7,29.56,East,82,5.0,15.0,62,0.00,,,0.00,Weather View 32 v70,2013-03-19 17:10:00,
2013-03-19 13:15:00,37.6,25.9,29.56,NNE,17,6.0,13.0,62,0.00,,,0.00,Weather View 32 v70,2013-03-19 17:15:00,
2013-03-19 13:20:00,37.9,26.0,29.56,ENE,66,4.0,13.0,62,0.00,,,0.00,Weather View 32 v70,2013-03-19 17:20:00,
2013-03-19 13:25:00,37.9,26.0,29.53,NNE,20,3.0,13.0,62,0.00,,,0.00,Weather View 32 v70,2013-03-19 17:25:00,
2013-03-19 13:30:00,37.4,25.1,29.56,North,7,4.0,12.0,61,0.00,,,0.00,Weather View 32 v70,2013-03-19 17:30:00,
2013-03-19 13:35:00,36.3,24.2,29.59,WNW,300,5.0,11.0,61,0.00,,,0.00,Weather View 32 v70,2013-03-19 17:35:00,
2013-03-19 13:40:00,35.8,24.4,29.62,West,273,8.0,11.0,63,0.00,,,0.00,Weather View 32 v70,2013-03-19 17:40:00,
2013-03-19 13:45:00,35.9,25.1,29.62,North,356,6.0,14.0,65,0.00,,,0.00,Weather View 32 v70,2013-03-19 17:45:00,
2013-03-19 13:50:00,36.3,25.5,29.59,NNE,18,11.0,14.0,65,0.00,,,0.00,Weather View 32 v70,2013-03-19 17:50:00,
2013-03-19 13:55:00,36.8,25.7,29.59,NNE,26,6.0,14.0,64,0.00,,,0.00,Weather View 32 v70,2013-03-19 17:55:00,
2013-03-19 14:00:00,36.1,24.5,29.56,NNW,348,12.0,14.0,63,0.00,,,0.00,Weather View 32 v70,2013-03-19 18:00:00,
2013-03-19 14:05:00,36.1,25.1,29.59,NNE,19,6.0,15.0,64,0.00,,,0.00,Weather View 32 v70,2013-03-19 18:05:00,
2013-03-19 14:10:00,36.3,25.0,29.59,North,359,4.0,15.0,63,0.00,,,0.00,Weather View 32 v70,2013-03-19 18:10:00,
2013-03-19 14:15:00,36.5,25.2,29.59,NE,35,2.0,15.0,63,0.00,,,0.00,Weather View 32 v70,2013-03-19 18:15:00,
2013-03-19 14:20:00,36.8,25.3,29.56,ENE,62,1.0,15.0,63,0.00,,,0.00,Weather View 32 v70,2013-03-19 18:20:00,
2013-03-19 14:25:00,36.1,24.3,29.56,North,353,4.0,15.0,62,0.00,,,0.00,Weather View 32 v70,2013-03-19 18:25:00,
2013-03-19 14:30:00,35.8,24.5,29.62,North,358,5.0,15.0,63,0.00,,,0.00,Weather View 32 v70,2013-03-19 18:30:00,
2013-03-19 14:35:00,36.3,24.8,29.53,North,10,6.0,15.0,63,0.00,,,0.00,Weather View 32 v70,2013-03-19 18:35:00,
2013-03-19 14:40:00,36.8,25.2,29.56,NE,51,6.0,15.0,62,0.00,,,0.00,Weather View 32 v70,2013-03-19 18:40:00,
2013-03-19 14:45:00,36.3,24.6,29.56,NNE,14,4.0,15.0,62,0.00,,,0.00,Weather View 32 v70,2013-03-19 18:45:00,
2013-03-19 14:50:00,37.4,25.6,29.59,East,85,1.0,15.0,62,0.00,,,0.00,Weather View 32 v70,2013-03-19 18:50:00,
2013-03-19 14:55:00,37.6,25.5,29.56,NE,44,5.0,15.0,61,0.00,,,0.00,Weather View 32 v70,2013-03-19 18:55:00,
2013-03-19 15:00:00,37.6,25.1,29.56,East,79,3.0,15.0,61,0.00,,,0.00,Weather View 32 v70,2013-03-19 19:00:00,
2013-03-19 15:05:00,37.9,25.3,29.53,NNE,15,5.0,17.0,60,0.00,,,0.00,Weather View 32 v70,2013-03-19 19:05:00,
2013-03-19 15:10:00,38.8,25.9,29.53,East,93,12.0,17.0,60,0.00,,,0.00,Weather View 32 v70,2013-03-19 19:10:00,
2013-03-19 15:15:00,40.1,26.8,29.50,ESE,116,4.0,17.0,59,0.00,,,0.00,Weather View 32 v70,2013-03-19 19:15:00,
2013-03-19 15:21:00,41.0,27.5,29.53,North,350,14.0,17.0,59,0.00,,,0.00,Weather View 32 v70,2013-03-19 19:21:00,
2013-03-19 15:26:00,40.4,26.0,29.47,North,360,8.0,21.0,56,0.00,,,0.00,Weather View 32 v70,2013-03-19 19:26:00,
2013-03-19 15:31:00,39.4,25.3,29.50,North,358,7.0,21.0,57,0.00,,,0.00,Weather View 32 v70,2013-03-19 19:31:00,
2013-03-19 15:36:00,40.3,26.4,29.53,ENE,61,4.0,21.0,57,0.00,,,0.00,Weather View 32 v70,2013-03-19 19:36:00,
2013-03-19 15:41:00,40.6,26.6,29.53,NNE,30,11.0,21.0,57,0.00,,,0.00,Weather View 32 v70,2013-03-19 19:41:00,
2013-03-19 15:46:00,40.8,26.6,29.50,North,358,4.0,21.0,57,0.00,,,0.00,Weather View 32 v70,2013-03-19 19:46:00,
2013-03-19 15:51:00,39.2,24.3,29.53,NNW,345,5.0,21.0,55,0.00,,,0.00,Weather View 32 v70,2013-03-19 19:51:00,
2013-03-19 15:56:00,38.8,23.8,29.53,NNE,32,9.0,21.0,55,0.00,,,0.00,Weather View 32 v70,2013-03-19 19:56:00,
2013-03-19 16:01:00,39.0,24.1,29.53,NNE,31,8.0,21.0,55,0.00,,,0.00,Weather View 32 v70,2013-03-19 20:01:00,
2013-03-19 16:06:00,39.2,24.4,29.53,East,91,3.0,21.0,55,0.00,,,0.00,Weather View 32 v70,2013-03-19 20:06:00,
2013-03-19 16:11:00,39.0,24.2,29.53,ENE,67,5.0,21.0,55,0.00,,,0.00,Weather View 32 v70,2013-03-19 20:11:00,
2013-03-19 16:16:00,38.6,23.6,29.53,NNE,22,7.0,21.0,55,0.00,,,0.00,Weather View 32 v70,2013-03-19 20:16:00,
2013-03-19 16:21:00,38.6,23.8,29.53,NE,56,5.0,21.0,55,0.00,,,0.00,Weather View 32 v70,2013-03-19 20:21:00,
2013-03-19 16:26:00,39.0,24.5,29.53,NE,53,7.0,13.0,56,0.00,,,0.00,Weather View 32 v70,2013-03-19 20:26:00,
2013-03-19 16:32:00,39.5,24.6,29.50,NE,42,7.0,13.0,55,0.00,,,0.00,Weather View 32 v70,2013-03-19 20:32:00,
2013-03-19 16:37:00,39.2,23.9,29.53,North,350,6.0,13.0,54,0.00,,,0.00,Weather View 32 v70,2013-03-19 20:37:00,
2013-03-19 16:42:00,38.8,23.3,29.53,NNE,19,6.0,13.0,53,0.00,,,0.00,Weather View 32 v70,2013-03-19 20:42:00,
2013-03-19 16:47:00,38.3,22.9,29.50,North,349,4.0,13.0,54,0.00,,,0.00,Weather View 32 v70,2013-03-19 20:47:00,
2013-03-19 16:52:00,37.7,22.7,29.50,West,278,1.0,13.0,54,0.00,,,0.00,Weather View 32 v70,2013-03-19 20:52:00,
2013-03-19 16:57:00,38.3,23.4,29.56,NNE,26,1.0,12.0,55,0.00,,,0.00,Weather View 32 v70,2013-03-19 20:57:00,
2013-03-19 17:02:00,37.7,22.8,29.50,NW,326,1.0,12.0,55,0.00,,,0.00,Weather View 32 v70,2013-03-19 21:02:00,
2013-03-19 17:07:00,37.4,22.4,29.56,North,349,4.0,12.0,54,0.00,,,0.00,Weather View 32 v70,2013-03-19 21:07:00,
2013-03-19 17:12:00,37.7,23.3,29.53,North,7,2.0,12.0,56,0.00,,,0.00,Weather View 32 v70,2013-03-19 21:12:00,
2013-03-19 17:17:00,37.7,22.9,29.56,NNE,16,5.0,12.0,55,0.00,,,0.00,Weather View 32 v70,2013-03-19 21:17:00,
2013-03-19 17:22:00,37.9,23.1,29.56,North,0,3.0,10.0,55,0.00,,,0.00,Weather View 32 v70,2013-03-19 21:22:00,
2013-03-19 17:27:00,38.3,23.2,29.53,North,10,5.0,10.0,54,0.00,,,0.00,Weather View 32 v70,2013-03-19 21:27:00,
2013-03-19 17:32:00,38.5,23.1,29.53,NNE,18,4.0,10.0,54,0.00,,,0.00,Weather View 32 v70,2013-03-19 21:32:00,
2013-03-19 17:37:00,38.6,23.1,29.53,North,4,3.0,10.0,53,0.00,,,0.00,Weather View 32 v70,2013-03-19 21:37:00,
2013-03-19 17:42:00,38.1,22.2,29.53,North,2,6.0,10.0,52,0.00,,,0.00,Weather View 32 v70,2013-03-19 21:42:00,
2013-03-19 17:47:00,37.9,22.2,29.56,North,2,5.0,10.0,53,0.00,,,0.00,Weather View 32 v70,2013-03-19 21:47:00,
2013-03-19 17:52:00,38.3,22.7,29.59,North,0,2.0,10.0,53,0.00,,,0.00,Weather View 32 v70,2013-03-19 21:52:00,
2013-03-19 17:57:00,37.6,21.8,29.56,WNW,287,4.0,10.0,53,0.00,,,0.00,Weather View 32 v70,2013-03-19 21:57:00,
2013-03-19 18:02:00,37.0,21.7,29.56,NNW,344,4.0,10.0,54,0.00,,,0.00,Weather View 32 v70,2013-03-19 22:02:00,
2013-03-19 18:07:00,37.2,22.2,29.56,North,354,2.0,10.0,54,0.00,,,0.00,Weather View 32 v70,2013-03-19 22:07:00,
2013-03-19 18:12:00,36.7,21.4,29.56,WNW,291,6.0,12.0,54,0.00,,,0.00,Weather View 32 v70,2013-03-19 22:12:00,
2013-03-19 18:17:00,36.7,21.7,29.56,WSW,240,2.0,12.0,54,0.00,,,0.00,Weather View 32 v70,2013-03-19 22:17:00,
2013-03-19 18:22:00,36.8,21.7,29.56,NW,323,3.0,12.0,54,0.00,,,0.00,Weather View 32 v70,2013-03-19 22:22:00,
2013-03-19 18:27:00,37.2,22.1,29.56,North,10,4.0,12.0,54,0.00,,,0.00,Weather View 32 v70,2013-03-19 22:27:00,
2013-03-19 18:32:00,36.7,21.7,29.56,NW,310,3.0,12.0,54,0.00,,,0.00,Weather View 32 v70,2013-03-19 22:32:00,
2013-03-19 18:37:00,36.8,22.3,29.56,NW,317,3.0,12.0,55,0.00,,,0.00,Weather View 32 v70,2013-03-19 22:37:00,
2013-03-19 18:42:00,36.5,21.8,29.56,North,352,3.0,12.0,55,0.00,,,0.00,Weather View 32 v70,2013-03-19 22:42:00,
2013-03-19 18:47:00,36.1,21.5,29.53,NNW,347,4.0,12.0,55,0.00,,,0.00,Weather View 32 v70,2013-03-19 22:47:00,
2013-03-19 18:52:00,36.1,21.6,29.59,North,359,3.0,12.0,55,0.00,,,0.00,Weather View 32 v70,2013-03-19 22:52:00,
2013-03-19 18:57:00,35.9,21.5,29.59,NNW,328,6.0,12.0,55,0.00,,,0.00,Weather View 32 v70,2013-03-19 22:57:00,
2013-03-19 19:02:00,36.3,21.7,29.59,North,351,4.0,12.0,55,0.00,,,0.00,Weather View 32 v70,2013-03-19 23:02:00,
2013-03-19 19:07:00,35.9,21.6,29.56,North,354,4.0,12.0,56,0.00,,,0.00,Weather View 32 v70,2013-03-19 23:07:00,
2013-03-19 19:12:00,35.9,21.8,29.53,NNW,338,5.0,12.0,56,0.00,,,0.00,Weather View 32 v70,2013-03-19 23:12:00,
2013-03-19 19:17:00,35.9,21.3,29.56,West,272,2.0,11.0,55,0.00,,,0.00,Weather View 32 v70,2013-03-19 23:17:00,
2013-03-19 19:22:00,35.8,21.0,29.59,NNW,335,5.0,11.0,55,0.00,,,0.00,Weather View 32 v70,2013-03-19 23:22:00,
2013-03-19 19:27:00,35.9,21.4,29.59,WNW,301,2.0,11.0,55,0.00,,,0.00,Weather View 32 v70,2013-03-19 23:27:00,
2013-03-19 19:32:00,35.8,21.2,29.59,NW,317,6.0,11.0,55,0.00,,,0.00,Weather View 32 v70,2013-03-19 23:32:00,
2013-03-19 19:37:00,35.9,21.5,29.59,West,279,4.0,10.0,55,0.00,,,0.00,Weather View 32 v70,2013-03-19 23:37:00,
2013-03-19 19:42:00,35.8,21.6,29.59,WNW,296,2.0,10.0,56,0.00,,,0.00,Weather View 32 v70,2013-03-19 23:42:00,
2013-03-19 19:49:00,35.6,21.5,29.59,WNW,299,4.0,10.0,56,0.00,,,0.00,Weather View 32 v70,2013-03-19 23:49:00,
2013-03-19 19:54:00,35.4,21.6,29.59,WNW,295,3.0,10.0,57,0.00,,,0.00,Weather View 32 v70,2013-03-19 23:54:00,
2013-03-19 19:59:00,35.8,22.1,29.62,WNW,296,2.0,10.0,57,0.00,,,0.00,Weather View 32 v70,2013-03-19 23:59:00,
2013-03-19 20:04:00,35.0,21.3,29.62,WNW,288,6.0,11.0,57,0.00,,,0.00,Weather View 32 v70,2013-03-20 00:04:00,
2013-03-19 20:09:00,35.4,21.9,29.62,NW,315,2.0,11.0,58,0.00,,,0.00,Weather View 32 v70,2013-03-20 00:09:00,
2013-03-19 20:14:00,35.0,21.5,29.62,NW,323,3.0,11.0,57,0.00,,,0.00,Weather View 32 v70,2013-03-20 00:14:00,
2013-03-19 20:19:00,34.5,21.3,29.62,West,263,3.0,12.0,58,0.00,,,0.00,Weather View 32 v70,2013-03-20 00:19:00,
2013-03-19 20:24:00,34.3,21.1,29.62,West,272,4.0,12.0,58,0.00,,,0.00,Weather View 32 v70,2013-03-20 00:24:00,
2013-03-19 20:29:00,34.3,21.3,29.62,WNW,302,5.0,12.0,59,0.00,,,0.00,Weather View 32 v70,2013-03-20 00:29:00,
2013-03-19 20:34:00,33.8,20.9,29.62,NW,312,3.0,12.0,59,0.00,,,0.00,Weather View 32 v70,2013-03-20 00:34:00,
2013-03-19 20:39:00,33.6,20.6,29.62,NNW,332,1.0,13.0,59,0.00,,,0.00,Weather View 32 v70,2013-03-20 00:39:00,
2013-03-19 20:44:00,33.4,20.7,29.62,NNW,332,2.0,13.0,59,0.00,,,0.00,Weather View 32 v70,2013-03-20 00:44:00,
2013-03-19 20:49:00,33.4,20.5,29.62,NW,317,4.0,13.0,59,0.00,,,0.00,Weather View 32 v70,2013-03-20 00:49:00,
2013-03-19 20:54:00,33.2,20.2,29.62,NW,309,5.0,13.0,58,0.00,,,0.00,Weather View 32 v70,2013-03-20 00:54:00,
2013-03-19 20:59:00,33.1,20.2,29.62,NNW,327,3.0,13.0,59,0.00,,,0.00,Weather View 32 v70,2013-03-20 00:59:00,
2013-03-19 21:04:00,33.1,20.0,29.59,NNW,331,8.0,13.0,58,0.00,,,0.00,Weather View 32 v70,2013-03-20 01:04:00,
2013-03-19 21:09:00,32.9,20.0,29.65,NW,304,6.0,13.0,59,0.00,,,0.00,Weather View 32 v70,2013-03-20 01:09:00,
2013-03-19 21:14:00,33.1,20.2,29.62,NW,325,3.0,13.0,59,0.00,,,0.00,Weather View 32 v70,2013-03-20 01:14:00,
2013-03-19 21:19:00,32.9,19.8,29.62,NW,311,6.0,13.0,58,0.00,,,0.00,Weather View 32 v70,2013-03-20 01:19:00,
2013-03-19 21:24:00,32.9,20.0,29.62,North,356,4.0,13.0,59,0.00,,,0.00,Weather View 32 v70,2013-03-20 01:24:00,
2013-03-19 21:29:00,33.1,20.2,29.62,North,353,2.0,13.0,59,0.00,,,0.00,Weather View 32 v70,2013-03-20 01:29:00,
2013-03-19 21:34:00,33.1,20.0,29.62,East,86,2.0,13.0,58,0.00,,,0.00,Weather View 32 v70,2013-03-20 01:34:00,
2013-03-19 21:39:00,32.7,19.3,29.62,NNW,345,5.0,12.0,58,0.00,,,0.00,Weather View 32 v70,2013-03-20 01:39:00,
2013-03-19 21:44:00,32.7,19.6,29.62,North,1,2.0,12.0,58,0.00,,,0.00,Weather View 32 v70,2013-03-20 01:44:00,
2013-03-19 21:49:00,32.5,19.3,29.62,NE,49,1.0,12.0,58,0.00,,,0.00,Weather View 32 v70,2013-03-20 01:49:00,
2013-03-19 21:54:00,32.5,19.3,29.62,NNW,328,1.0,12.0,58,0.00,,,0.00,Weather View 32 v70,2013-03-20 01:54:00,
2013-03-19 21:59:00,32.3,19.1,29.62,NNW,343,2.0,12.0,58,0.00,,,0.00,Weather View 32 v70,2013-03-20 01:59:00,
2013-03-19 22:04:00,32.3,19.0,29.62,NE,38,1.0,12.0,57,0.00,,,0.00,Weather View 32 v70,2013-03-20 02:04:00,
2013-03-19 22:09:00,32.2,18.9,29.65,North,352,2.0,12.0,58,0.00,,,0.00,Weather View 32 v70,2013-03-20 02:09:00,
2013-03-19 22:14:00,32.0,18.9,29.62,North,353,2.0,12.0,58,0.00,,,0.00,Weather View 32 v70,2013-03-20 02:14:00,
2013-03-19 22:19:00,32.0,19.0,29.62,NNW,346,3.0,12.0,58,0.00,,,0.00,Weather View 32 v70,2013-03-20 02:19:00,
2013-03-19 22:24:00,32.0,18.9,29.62,NW,316,5.0,12.0,58,0.00,,,0.00,Weather View 32 v70,2013-03-20 02:24:00,
2013-03-19 22:29:00,32.0,19.3,29.62,WNW,293,4.0,12.0,59,0.00,,,0.00,Weather View 32 v70,2013-03-20 02:29:00,
2013-03-19 22:34:00,32.0,19.2,29.62,NNW,338,6.0,11.0,59,0.00,,,0.00,Weather View 32 v70,2013-03-20 02:34:00,
2013-03-19 22:39:00,32.5,19.7,29.62,ENE,61,2.0,11.0,59,0.00,,,0.00,Weather View 32 v70,2013-03-20 02:39:00,
2013-03-19 22:44:00,32.2,19.4,29.65,North,355,2.0,9.0,59,0.00,,,0.00,Weather View 32 v70,2013-03-20 02:44:00,
2013-03-19 22:49:00,32.0,19.0,29.62,WNW,302,3.0,9.0,58,0.00,,,0.00,Weather View 32 v70,2013-03-20 02:49:00,
2013-03-19 22:54:00,32.0,19.0,29.62,NNW,337,3.0,15.0,58,0.00,,,0.00,Weather View 32 v70,2013-03-20 02:54:00,
2013-03-19 22:59:00,32.2,19.0,29.62,NNW,329,6.0,15.0,58,0.00,,,0.00,Weather View 32 v70,2013-03-20 02:59:00,
2013-03-19 23:04:00,32.3,19.3,29.62,ENE,65,3.0,15.0,58,0.00,,,0.00,Weather View 32 v70,2013-03-20 03:04:00,
2013-03-19 23:09:00,32.2,19.2,29.62,North,359,3.0,15.0,58,0.00,,,0.00,Weather View 32 v70,2013-03-20 03:09:00,
2013-03-19 23:15:00,32.0,19.0,29.62,NNW,328,11.0,15.0,58,0.00,,,0.00,Weather View 32 v70,2013-03-20 03:15:00,
2013-03-19 23:19:00,32.0,19.5,29.62,NNW,338,3.0,15.0,60,0.00,,,0.00,Weather View 32 v70,2013-03-20 03:19:00,
2013-03-19 23:24:00,31.8,19.0,29.62,NW,312,4.0,15.0,59,0.00,,,0.00,Weather View 32 v70,2013-03-20 03:24:00,
2013-03-19 23:29:00,32.0,19.3,29.62,WSW,251,0.0,15.0,59,0.00,,,0.00,Weather View 32 v70,2013-03-20 03:29:00,
2013-03-19 23:35:00,31.8,18.7,29.62,NW,315,4.0,15.0,58,0.00,,,0.00,Weather View 32 v70,2013-03-20 03:35:00,
2013-03-19 23:40:00,32.0,19.2,29.62,West,259,1.0,15.0,59,0.00,,,0.00,Weather View 32 v70,2013-03-20 03:40:00,
2013-03-19 23:45:00,32.0,18.9,29.62,NW,308,3.0,15.0,58,0.00,,,0.00,Weather View 32 v70,2013-03-20 03:45:00,
2013-03-19 23:50:00,32.2,19.0,29.62,WNW,300,1.0,15.0,58,0.00,,,0.00,Weather View 32 v70,2013-03-20 03:50:00,
2013-03-19 23:55:00,32.2,18.9,29.62,NNW,337,3.0,12.0,58,0.00,,,0.00,Weather View 32 v70,2013-03-20 03:55:00,